Weather History for EGJA - November, 2012

Change the Weather History Date:

Wednesday, November 21, 2012

  Actual Average Record
Temperature  
Mean Temperature 52 °F -  
Max Temperature 53 °F 48 °F 55 °F (2004)
Min Temperature 50 °F 44 °F 42 °F (2013)
Degree Days  
Heating Degree Days 14    
Growing Degree Days 2 (Base 50)    
Moisture  
Dew Point 46 °F    
Average Humidity 83    
Maximum Humidity 100    
Minimum Humidity 76    
Precipitation  
Precipitation 0.00 in - - ()
Sea Level Pressure  
Sea Level Pressure 29.82 in    
Wind  
Wind Speed 22 mph ()    
Max Wind Speed 34 mph    
Max Gust Speed 47 mph    
Visibility 6.2 miles    
Events Rain    
Averages and records for this station are not official NWS values.
T = Trace of Precipitation, MM = Missing Value Source: Averaged Metar Reports

Daily Weather History Graph

Daily Weather History Graph

Search for Another Location

Airport or City:

Trip Planner

Search our weather history database for the weather conditions in past years. The results will help you decide how hot, cold, wet, or windy it might be!

Date:

Astronomy

Nov. 21, 2012 Rise Set
Actual Time 7:30 AM GMT 4:18 PM GMT
Civil Twilight 6:54 AM GMT 4:54 PM GMT
Nautical Twilight 6:14 AM GMT 5:34 PM GMT
Astronomical Twilight 5:36 AM GMT 6:12 PM GMT
Moon 1:01 PM GMT (11/21) No Moon Set
Length of Visible Light 10h 00m
Length of Day
8h 48m
First Quarter, 59% of the Moon is Illuminated
Nov 21
First Quarter
Nov 28
Full
Dec 6
Last Quarter
Dec 13
New
Dec 20
First Quarter

Hourly Weather History & Observations

Time (GMT) Temp. Dew Point Humidity Pressure Visibility Wind Dir Wind Speed Gust Speed Precip Events Conditions
6:50 AM 51.8 °F 51.8 °F 100% 29.56 in 6.2 mi South 26.5 mph 39.1 mph N/A Rain Light Rain
7:20 AM 53.6 °F 51.8 °F 94% 29.56 in 6.2 mi SSW 27.6 mph 44.9 mph N/A Rain Light Rain
7:50 AM 51.8 °F 48.2 °F 88% 29.59 in 6.2 mi SW 26.5 mph - N/A   Scattered Clouds
8:20 AM 50.0 °F 46.4 °F 87% 29.62 in 6.2 mi WSW 26.5 mph - N/A   Scattered Clouds
8:50 AM 50.0 °F 46.4 °F 87% 29.65 in 6.2 mi West 33.4 mph - N/A   Scattered Clouds
9:20 AM 50.0 °F 44.6 °F 82% 29.68 in 6.2 mi West 34.5 mph 47.2 mph N/A   Scattered Clouds
9:50 AM 50.0 °F 44.6 °F 82% 29.71 in 6.2 mi West 31.1 mph 43.7 mph N/A   Partly Cloudy
10:20 AM 50.0 °F 44.6 °F 82% 29.74 in 6.2 mi West 29.9 mph - N/A   Partly Cloudy
10:50 AM 50.0 °F 44.6 °F 82% 29.77 in 6.2 mi West 32.2 mph 43.7 mph N/A   Partly Cloudy
11:20 AM 50.0 °F 44.6 °F 82% 29.80 in 6.2 mi West 27.6 mph 40.3 mph N/A   Partly Cloudy
11:50 AM 50.0 °F 42.8 °F 76% 29.83 in 6.2 mi West 29.9 mph - N/A   Partly Cloudy
12:20 PM 50.0 °F 44.6 °F 82% 29.86 in 6.2 mi West 24.2 mph 38.0 mph N/A   Partly Cloudy
12:50 PM 51.8 °F 44.6 °F 76% 29.86 in 6.2 mi West 20.7 mph - N/A   Partly Cloudy
1:20 PM 51.8 °F 44.6 °F 76% 29.89 in 6.2 mi West 18.4 mph - N/A   Partly Cloudy
1:50 PM 51.8 °F 46.4 °F 82% 29.89 in 6.2 mi West 20.7 mph - N/A   Partly Cloudy
2:20 PM 50.0 °F 46.4 °F 87% 29.92 in 6.2 mi West 18.4 mph - N/A   Scattered Clouds
2:50 PM 51.8 °F 46.4 °F 82% 29.92 in 6.2 mi West 15.0 mph - N/A   Scattered Clouds
3:20 PM 51.8 °F 44.6 °F 76% 29.95 in 6.2 mi WSW 17.3 mph - N/A   Scattered Clouds
3:50 PM 51.8 °F 46.4 °F 82% 29.95 in 6.2 mi West 19.6 mph - N/A   Scattered Clouds
4:20 PM 51.8 °F 44.6 °F 76% 29.95 in 6.2 mi West 20.7 mph - N/A   Scattered Clouds
4:50 PM 51.8 °F 44.6 °F 76% 29.98 in 6.2 mi West 19.6 mph - N/A   Scattered Clouds
5:20 PM 50.0 °F 44.6 °F 82% 29.98 in 6.2 mi West 16.1 mph - N/A   Scattered Clouds
5:50 PM 50.0 °F 44.6 °F 82% 29.98 in 6.2 mi West 16.1 mph - N/A   Partly Cloudy
6:20 PM 50.0 °F 44.6 °F 82% 29.98 in 6.2 mi West 16.1 mph - N/A   Partly Cloudy